Emporia, Virginia, United States (23847)
Lat: 36.69N, Lon: 77.54W
Wx Zone: VAZ087
Local Info
Past Weather Observations for Wednesday, July 20, 2016

NOTE: This archive is for the closest National Weather Service station to Emporia. Information may differ from the station used for current weather conditions.

Click here for Long-term Archive

Time Weather Temperature Dewpoint Humidity Pressure Winds Precip Visibility
23:55
Fair
68°F / 20°C 68°F / 20°C 100% 30.18 in
(1022 mb)
Calm -
23:35
Obscured
Fog And Mist
68°F / 20°C 68°F / 20°C 100% 30.18 in
(1022 mb)
Calm - 3/4SM
23:15
Obscured
Fog
66°F / 19°C 66°F / 19°C 100% 30.18 in
(1022 mb)
Calm - 1/2SM
22:55
Clear
Fog And Mist
66°F / 19°C 66°F / 19°C 100% 30.18 in
(1022 mb)
Calm - 5SM
22:35
Clear
68°F / 20°C 68°F / 20°C 100% 30.18 in
(1022 mb)
Calm - 7SM
22:15
Obscured
Fog And Mist
68°F / 20°C 66°F / 19°C 94% 30.18 in
(1022 mb)
Calm - 1 1/4SM
21:55
Clear
68°F / 20°C 68°F / 20°C 100% 30.18 in
(1022 mb)
Calm - 10SM
21:35
Clear
70°F / 21°C 70°F / 21°C 100% 30.18 in
(1022 mb)
Calm - 10SM
21:15
Clear
70°F / 21°C 68°F / 20°C 94% 30.18 in
(1022 mb)
Calm - 10SM
20:55
Fair
72°F / 22°C 68°F / 20°C 88% 30.18 in
(1022 mb)
Calm -
20:35
Clear
72°F / 22°C 70°F / 21°C 94% 30.18 in
(1022 mb)
Calm - 10SM
20:15
Clear
75°F / 24°C 70°F / 21°C 83% 30.18 in
(1022 mb)
Calm - 10SM
19:55
Clear
75°F / 24°C 70°F / 21°C 83% 30.18 in
(1022 mb)
ENE 3.5 mph
(ENE 6 kph)
- 10SM
19:35
Clear
77°F / 25°C 70°F / 21°C 79% 30.15 in
(1021 mb)
Calm - 10SM
19:15
Clear
79°F / 26°C 70°F / 21°C 74% 30.18 in
(1022 mb)
ENE 3.5 mph
(ENE 6 kph)
- 10SM
18:55
Fair
N/A N/A N/A N/A Calm -
18:15
Partly Cloudy
82°F / 28°C 70°F / 21°C 66% 30.15 in
(1021 mb)
NE 5.8 mph
(NE 9 kph)
-
17:55
Clear
84°F / 29°C 68°F / 20°C 58% 30.15 in
(1021 mb)
N 3.5 mph
(N 6 kph)
-
17:35
Clear
86°F / 30°C 68°F / 20°C 55% 30.15 in
(1021 mb)
N 4.6 mph
(N 7 kph)
-
17:15
Clear
86°F / 30°C 68°F / 20°C 55% 30.12 in
(1020 mb)
N 5.8 mph
(N 9 kph)
-
16:55
Clear
86°F / 30°C 66°F / 19°C 52% 30.12 in
(1020 mb)
NW 3.5 mph
(NW 6 kph)
-
16:35
Clear
86°F / 30°C 68°F / 20°C 55% 30.12 in
(1020 mb)
NNW 5.8 mph
(NNW 9 kph)
- 10SM
16:15
Clear
86°F / 30°C 68°F / 20°C 55% 30.15 in
(1021 mb)
Calm -
15:55
Partly Cloudy
82°F / 28°C 68°F / 20°C 62% 30.15 in
(1021 mb)
N 3.5 mph
(N 6 kph)
- 10SM
15:35
Partly Cloudy
86°F / 30°C 68°F / 20°C 55% 30.15 in
(1021 mb)
NE 5.8 mph
(NE 9 kph)
- 10SM
15:15
Mostly Cloudy
86°F / 30°C 70°F / 21°C 59% 30.15 in
(1021 mb)
N 5.8 mph
(N 9 kph)
- 10SM
14:55
Partly Cloudy
84°F / 29°C 70°F / 21°C 62% 30.15 in
(1021 mb)
NW 4.6 mph
(NW 7 kph)
- 10SM
14:35
Mostly Cloudy
86°F / 30°C 70°F / 21°C 59% 30.15 in
(1021 mb)
NNE 4.6 mph
(NNE 7 kph)
-
14:15
Partly Cloudy
86°F / 30°C 70°F / 21°C 59% 30.15 in
(1021 mb)
NNW 3.5 mph
(NNW 6 kph)
- 10SM
13:55
Mostly Cloudy
84°F / 29°C 72°F / 22°C 66% 30.18 in
(1022 mb)
N 8.1 mph
(N 13 kph)
-
13:35
Mostly Cloudy
86°F / 30°C 70°F / 21°C 59% 30.18 in
(1022 mb)
NNW 3.5 mph
(NNW 6 kph)
-
13:15
Partly Cloudy
86°F / 30°C 72°F / 22°C 62% 30.18 in
(1022 mb)
NE 6.9 mph
(NE 11 kph)
-
12:55
Mostly Cloudy
84°F / 29°C 72°F / 22°C 66% 30.18 in
(1022 mb)
N 4.6 mph
(N 7 kph)
-
12:35
Partly Cloudy
84°F / 29°C 72°F / 22°C 66% 30.18 in
(1022 mb)
NNW 6.9 mph
(NNW 11 kph)
-
12:15
Partly Cloudy
84°F / 29°C 72°F / 22°C 66% 30.18 in
(1022 mb)
Calm -
11:55
Partly Cloudy
82°F / 28°C 72°F / 22°C 70% 30.18 in
(1022 mb)
N 3.5 mph
(N 6 kph)
-
11:35
Clear
82°F / 28°C 72°F / 22°C 70% 30.21 in
(1023 mb)
NW 3.5 mph
(NW 6 kph)
-
11:15
Clear
81°F / 27°C 70°F / 21°C 70% 30.18 in
(1022 mb)
NNW 4.6 mph
(NNW 7 kph)
- 10SM
10:55
Clear
81°F / 27°C 70°F / 21°C 70% 30.21 in
(1023 mb)
NW 8.1 mph
(NW 13 kph)
- 10SM
10:35
Clear
81°F / 27°C 70°F / 21°C 70% 30.21 in
(1023 mb)
NNW 3.5 mph
(NNW 6 kph)
-
10:15
Clear
81°F / 27°C 70°F / 21°C 70% 30.21 in
(1023 mb)
NNE 3.5 mph
(NNE 6 kph)
- 10SM
09:55
Clear
79°F / 26°C 70°F / 21°C 74% 30.21 in
(1023 mb)
Calm -
09:35
Clear
77°F / 25°C 70°F / 21°C 79% 30.21 in
(1023 mb)
Calm -
09:15
Clear
77°F / 25°C 70°F / 21°C 79% 30.21 in
(1023 mb)
Calm -
08:55
Partly Cloudy
73°F / 23°C 70°F / 21°C 89% 30.21 in
(1023 mb)
E 3.5 mph
(E 6 kph)
- 10SM
08:35
Partly Cloudy
73°F / 23°C 70°F / 21°C 89% 30.21 in
(1023 mb)
Calm - 10SM
08:15
Partly Cloudy
72°F / 22°C 68°F / 20°C 88% 30.21 in
(1023 mb)
Calm - 10SM
07:55
Partly Cloudy
70°F / 21°C 68°F / 20°C 94% 30.21 in
(1023 mb)
Calm - 10SM
07:35
Overcast
70°F / 21°C 68°F / 20°C 94% 30.21 in
(1023 mb)
Calm - 7SM
07:15
Overcast
Fog And Mist
68°F / 20°C 68°F / 20°C 100% 30.21 in
(1023 mb)
Calm - 1 3/4SM
06:55
Overcast
Fog And Mist
68°F / 20°C 68°F / 20°C 100% 30.21 in
(1023 mb)
Calm - 2SM
06:35
Overcast
66°F / 19°C 66°F / 19°C 100% 30.21 in
(1023 mb)
Calm -
06:15
Overcast
Fog
66°F / 19°C 66°F / 19°C 100% 30.21 in
(1023 mb)
Calm - 1/4SM
05:55
Overcast
Fog
66°F / 19°C 66°F / 19°C 100% 30.18 in
(1022 mb)
Calm - M1/4SM
05:35
Overcast
Fog And Mist
66°F / 19°C 66°F / 19°C 100% 30.18 in
(1022 mb)
Calm - 1 1/4SM
05:15
Overcast
Fog And Mist
64°F / 18°C 64°F / 18°C 100% 30.18 in
(1022 mb)
Calm - 2 1/2SM
04:55
Overcast
Fog And Mist
66°F / 19°C 66°F / 19°C 100% 30.18 in
(1022 mb)
Calm - 5SM
04:35
Overcast
Fog And Mist
66°F / 19°C 66°F / 19°C 100% 30.15 in
(1021 mb)
E 3.5 mph
(E 6 kph)
- 2 1/2SM
04:15
Overcast
66°F / 19°C 66°F / 19°C 100% 30.18 in
(1022 mb)
E 3.5 mph
(E 6 kph)
-
03:55
Overcast
Fog And Mist
66°F / 19°C 66°F / 19°C 100% 30.15 in
(1021 mb)
E 5.8 mph
(E 9 kph)
- 1 3/4SM
03:35
Mostly Cloudy
66°F / 19°C 66°F / 19°C 100% 30.15 in
(1021 mb)
SE 5.8 mph
(SE 9 kph)
- 7SM
03:15
Clear
66°F / 19°C 66°F / 19°C 100% 30.15 in
(1021 mb)
Calm - 7SM
02:55
Clear
Fog And Mist
66°F / 19°C 66°F / 19°C 100% 30.15 in
(1021 mb)
ESE 5.8 mph
(ESE 9 kph)
- 5SM
02:35
Fair
66°F / 19°C 66°F / 19°C 100% 30.15 in
(1021 mb)
Calm -
02:15
Clear
68°F / 20°C 68°F / 20°C 100% 30.15 in
(1021 mb)
Calm - 10SM
01:55
Fair
68°F / 20°C 68°F / 20°C 100% 30.18 in
(1022 mb)
Calm 0.01 in
(0.25 mm)
01:35
Partly Cloudy
Light Snow
68°F / 20°C 68°F / 20°C 100% 30.15 in
(1021 mb)
Calm - 10SM
01:15
Fair
66°F / 19°C 66°F / 19°C 100% 30.18 in
(1022 mb)
Calm -
00:55
Clear
66°F / 19°C 66°F / 19°C 100% 30.15 in
(1021 mb)
NW 4.6 mph
(NW 7 kph)
- 10SM
00:35
Clear
Fog And Mist
64°F / 18°C 64°F / 18°C 100% 30.15 in
(1021 mb)
Calm - 5SM
00:15
Clear
66°F / 19°C 66°F / 19°C 100% 30.15 in
(1021 mb)
Calm - 10SM
Time Weather Temperature Dewpoint Humidity Pressure Winds Precip Visibility


Weather for websites

WeatherForYou.com, LLC is not responsible for any damages or problems caused by this service. Current weather conditions are obtained from the closest station including government and personal stations which may have varying degrees of accuracy. Weather forecasts are derived from the NOAA NDFD. Like all things, this site belongs to Jesus Christ... He just trusts us to maintain it. If you have any questions or comments email webmaster@weatherforyou.com

Copyright © 2016, WeatherForYou.com LLC. All rights reserved.